Printer-friendly version

IAU Minor Planet Center

Minor Planet Center

MPEC 2007-T83 : 2007 TR24

The following Minor Planet Electronic Circular may be linked-to from your own Web pages, but must not otherwise be redistributed electronically.


Read MPEC 2007-T82 Read MPEC 2007-T84


M.P.E.C. 2007-T83                                Issued 2007 Oct. 12, 14:19 UT

     The Minor Planet Electronic Circulars contain information on unusual
         minor planets and routine data on comets.  They are published
   on behalf of Commission 20 of the International Astronomical Union by the
          Minor Planet Center, Smithsonian Astrophysical Observatory,
                          Cambridge, MA 02138, U.S.A.

             Prepared using the Tamkin Foundation Computer Network

                              MPC@CFA.HARVARD.EDU
          URL http://www.cfa.harvard.edu/iau/mpc.html  ISSN 1523-6714

                                   2007 TR24

Observations:
     K07T24R* C2007 10 11.20685 01 11 28.96 -08 09 09.2          18.5 V ET083703
     K07T24R  C2007 10 11.21395 01 11 27.78 -08 09 24.1          18.7 V ET083703
     K07T24R  C2007 10 11.22103 01 11 26.70 -08 09 39.8          18.9 V ET083703
     K07T24R  C2007 10 11.22814 01 11 25.51 -08 09 54.9          19.0 V ET083703
     K07T24R  C2007 10 11.34341 01 11 06.90 -08 14 01.7          18.5 V ET083703
     K07T24R  C2007 10 11.34473 01 11 06.72 -08 14 04.5          18.6 V ET083703
     K07T24R  C2007 10 11.34598 01 11 06.50 -08 14 06.5          18.5 V ET083703
     K07T24R  C2007 10 11.34726 01 11 06.32 -08 14 10.5          18.7 V ET083703
     K07T24R  C2007 10 11.35091 01 11 05.67 -08 14 18.3          18.8 R ET083651
     K07T24R  C2007 10 11.35201 01 11 05.50 -08 14 20.3          18.7 R ET083651
     K07T24R  C2007 10 11.35529 01 11 04.97 -08 14 27.8          18.7 R ET083651
     K07T24R  C2007 10 11.93110 01 09 36.31 -08 35 31.4                 ET083204
     K07T24R  C2007 10 11.97009 01 09 29.78 -08 36 57.9          18.4 R ET083204
     K07T24R  C2007 10 11.97533 01 09 28.90 -08 37 09.7                 ET083204
     K07T24R 5C2007 10 12.32303201 08 32.884-08 50 04.92         18.8 R ET083673
     K07T24R 5C2007 10 12.32870401 08 31.934-08 50 17.01                ET083673
     K07T24R  C2007 10 12.32949 01 08 31.59 -08 50 19.0          18.9 V ET083G96
     K07T24R  C2007 10 12.33252 01 08 31.09 -08 50 25.6          18.2 V ET083G96
     K07T24R 5C2007 10 12.33425901 08 30.950-08 50 30.04                ET083673
     K07T24R  C2007 10 12.33550 01 08 30.55 -08 50 32.5          18.3 V ET083G96
     K07T24R  C2007 10 12.33853 01 08 30.04 -08 50 39.3          18.2 V ET083G96
     K07T24R 5C2007 10 12.34085601 08 29.784-08 50 44.68                ET083673

Observer details:
204 Schiaparelli Observatory.  Observer L. Buzzi.  0.60-m f/4.64 reflector
    + CCD.
651 Grasslands Observatory, Tucson.  Observer J. E. McGaha.  0.62-m f/5.1
    Newtonian reflector + CCD.
673 Table Mountain Observatory, Wrightwood.  Observer J. Young.  0.61-m f/16
    Cassegrain + CCD.
703 Catalina Sky Survey.  Observer A. R. Gibbs.  Measurers E. C. Beshore,
    A. Boattini, G. J. Garradd, A. R. Gibbs, A. D. Grauer, R. E. Hill,
    R. A. Kowalski, S. M. Larson, R. H. McNaught.  0.68-m Schmidt + CCD.
G96 Mt. Lemmon Survey.  Observer R. E. Hill.  Measurers E. C. Beshore,
    A. Boattini, G. J. Garradd, A. R. Gibbs, A. D. Grauer, R. E. Hill,
    R. A. Kowalski, S. M. Larson, R. H. McNaught.  1.5-m reflector + CCD.

Orbital elements:
2007 TR24                                           PHA, Earth MOID = 0.0477 AU
Epoch 2007 Oct. 27.0 TT = JDT 2454400.5                 MPC
M 338.55464              (2000.0)            P               Q
n   0.36966256     Peri.   36.88694     -0.55781393     -0.82755517
a   1.9227924      Node    87.10084     +0.74556826     -0.53309902
e   0.6803608      Incl.    3.62899     +0.36465271     -0.17594849
P   2.67           H   20.0           G   0.15           U   9
Residuals in seconds of arc
071011 703  0.3+  0.4-    071011 651  0.3-  0.2-    071012 G96  0.0   0.3-
071011 703  0.4-  0.1-    071011 651  0.1-  0.1+    071012 G96  0.4+  0.1-
071011 703  0.3+  0.5-    071011 651  0.1-  0.3-    071012 673  0.2-  0.2+
071011 703  0.5-  0.4-    071011 204  0.2+  0.5-    071012 G96  0.1+  0.2-
071011 703  0.2-  0.6+    071011 204  0.1+  0.3-    071012 G96  0.3+  0.2-
071011 703  0.3+  0.6+    071011 204  0.1+  0.5-    071012 673  0.5-  0.5+
071011 703  0.1+  1.3+    071012 673  0.4-  0.0
071011 703  0.5+  0.0     071012 673  0.1+  0.7+

Ephemeris:
2007 TR24                a,e,i = 1.92, 0.68, 4                   q = 0.6146
Date    TT    R. A. (2000) Decl.     Delta      r     Elong.  Phase     V
2007 10 07    01 20.63   -05 53.6    0.353    1.346   166.3    10.1    19.0
2007 10 12    01 09.42   -08 37.6    0.302    1.291   164.2    12.1    18.7
2007 10 17    00 53.53   -12 08.7    0.254    1.236   157.4    18.1    18.4
2007 10 22    00 30.82   -16 41.6    0.213    1.179   147.0    27.3    18.2
2007 10 27    23 57.44   -22 32.8    0.177    1.122   133.3    40.2    18.1
2007 11 01    23 06.56   -29 41.4    0.149    1.065   115.5    57.3    18.1
2007 11 06    21 48.93   -36 49.0    0.131    1.008    93.3    79.2    18.4
2007 11 11    20 05.52   -40 24.3    0.128    0.950    68.2   104.6    19.3
2007 11 16    18 25.36   -38 15.7    0.141    0.893    44.1   129.6    21.2

Timothy B. Spahr             (C) Copyright 2007 MPC           M.P.E.C. 2007-T83

Read MPEC 2007-T82 Read MPEC 2007-T84


Our Web policy. Index to the CBAT/MPC/ICQ pages.


Valid HTML 4.01!